Time,TemperatureF,DewpointF,PressureIn,WindDirection,WindDirectionDegrees,WindSpeedMPH,WindSpeedGustMPH,Humidity,HourlyPrecipIn,Conditions,Clouds,dailyrainin,SoftwareType,DateUTC
2013-03-08 00:11:00,19.2,17.0,30.41,East,82,0.0,0.0,92,0.00,,,0.00,weatherlink.com 1.10,2013-03-08 05:11:00,
2013-03-08 00:26:00,19.1,17.0,30.41,East,82,0.0,0.0,92,0.00,,,0.00,weatherlink.com 1.10,2013-03-08 05:26:00,
2013-03-08 00:41:00,18.4,16.0,30.41,East,82,0.0,0.0,91,0.00,,,0.00,weatherlink.com 1.10,2013-03-08 05:41:00,
2013-03-08 00:57:00,18.3,17.0,30.42,East,82,0.0,0.0,93,0.00,,,0.00,weatherlink.com 1.10,2013-03-08 05:57:00,
2013-03-08 01:12:00,18.8,17.0,30.42,East,82,0.0,0.0,93,0.00,,,0.00,weatherlink.com 1.10,2013-03-08 06:12:00,
2013-03-08 01:27:00,17.8,16.0,30.43,East,82,0.0,0.0,92,0.00,,,0.00,weatherlink.com 1.10,2013-03-08 06:27:00,
2013-03-08 01:42:00,18.3,17.0,30.43,East,82,0.0,0.0,94,0.00,,,0.00,weatherlink.com 1.10,2013-03-08 06:42:00,
2013-03-08 01:57:00,18.4,17.0,30.43,East,82,0.0,0.0,93,0.00,,,0.00,weatherlink.com 1.10,2013-03-08 06:57:00,
2013-03-08 02:12:00,18.6,17.0,30.44,East,82,0.0,0.0,94,0.00,,,0.00,weatherlink.com 1.10,2013-03-08 07:12:00,
2013-03-08 02:27:00,18.6,17.0,30.44,East,82,0.0,1.0,93,0.00,,,0.00,weatherlink.com 1.10,2013-03-08 07:27:00,
2013-03-08 02:42:00,18.3,17.0,30.45,South,170,0.0,1.0,93,0.00,,,0.00,weatherlink.com 1.10,2013-03-08 07:42:00,
2013-03-08 02:57:00,19.7,18.0,30.45,WSW,247,0.0,1.0,92,0.00,,,0.00,weatherlink.com 1.10,2013-03-08 07:57:00,
2013-03-08 03:12:00,20.1,18.0,30.45,WSW,252,0.0,1.0,90,0.00,,,0.00,weatherlink.com 1.10,2013-03-08 08:12:00,
2013-03-08 03:27:00,19.9,18.0,30.45,WSW,252,0.0,0.0,90,0.00,,,0.00,weatherlink.com 1.10,2013-03-08 08:27:00,
2013-03-08 03:42:00,19.4,17.0,30.45,WSW,252,0.0,0.0,90,0.00,,,0.00,weatherlink.com 1.10,2013-03-08 08:42:00,
2013-03-08 03:57:00,18.9,17.0,30.46,WSW,252,0.0,0.0,91,0.00,,,0.00,weatherlink.com 1.10,2013-03-08 08:57:00,
2013-03-08 04:12:00,18.3,16.0,30.46,WSW,252,0.0,0.0,91,0.00,,,0.00,weatherlink.com 1.10,2013-03-08 09:12:00,
2013-03-08 04:27:00,18.7,17.0,30.46,WSW,252,0.0,0.0,92,0.00,,,0.00,weatherlink.com 1.10,2013-03-08 09:27:00,
2013-03-08 04:42:00,18.3,16.0,30.46,WSW,252,0.0,0.0,91,0.00,,,0.00,weatherlink.com 1.10,2013-03-08 09:42:00,
2013-03-08 04:59:00,17.2,15.0,30.47,WSW,252,0.0,0.0,92,0.00,,,0.00,weatherlink.com 1.10,2013-03-08 09:59:00,
2013-03-08 05:12:00,17.3,16.0,30.47,WSW,252,0.0,0.0,93,0.00,,,0.00,weatherlink.com 1.10,2013-03-08 10:12:00,
2013-03-08 05:27:00,16.7,15.0,30.47,WSW,252,0.0,0.0,93,0.00,,,0.00,weatherlink.com 1.10,2013-03-08 10:27:00,
2013-03-08 05:42:00,16.3,15.0,30.48,WSW,252,0.0,0.0,93,0.00,,,0.00,weatherlink.com 1.10,2013-03-08 10:42:00,
2013-03-08 05:57:00,16.0,15.0,30.48,WSW,252,0.0,0.0,94,0.00,,,0.00,weatherlink.com 1.10,2013-03-08 10:57:00,
2013-03-08 06:12:00,17.1,16.0,30.47,WSW,252,0.0,1.0,94,0.00,,,0.00,weatherlink.com 1.10,2013-03-08 11:12:00,
2013-03-08 06:27:00,16.2,15.0,30.48,WSW,252,0.0,0.0,93,0.00,,,0.00,weatherlink.com 1.10,2013-03-08 11:27:00,
2013-03-08 06:42:00,15.7,14.0,30.48,WSW,252,0.0,0.0,93,0.00,,,0.00,weatherlink.com 1.10,2013-03-08 11:42:00,
2013-03-08 06:57:00,15.5,14.0,30.49,WSW,252,0.0,0.0,94,0.00,,,0.00,weatherlink.com 1.10,2013-03-08 11:57:00,
2013-03-08 07:12:00,15.3,14.0,30.50,WSW,252,0.0,0.0,94,0.00,,,0.00,weatherlink.com 1.10,2013-03-08 12:12:00,
2013-03-08 07:27:00,15.4,14.0,30.50,WSW,252,0.0,0.0,94,0.00,,,0.00,weatherlink.com 1.10,2013-03-08 12:27:00,
2013-03-08 07:42:00,16.1,15.0,30.50,WSW,252,0.0,0.0,94,0.00,,,0.00,weatherlink.com 1.10,2013-03-08 12:42:00,
2013-03-08 07:57:00,17.7,17.0,30.51,WSW,252,0.0,1.0,95,0.00,,,0.00,weatherlink.com 1.10,2013-03-08 12:57:00,
2013-03-08 08:12:00,20.2,19.0,30.50,West,273,0.0,1.0,94,0.00,,,0.00,weatherlink.com 1.10,2013-03-08 13:12:00,
2013-03-08 08:27:00,22.6,20.0,30.50,NNE,15,0.0,1.0,91,0.00,,,0.00,weatherlink.com 1.10,2013-03-08 13:27:00,
2013-03-08 08:42:00,24.3,21.0,30.51,NNE,16,0.0,1.0,87,0.00,,,0.00,weatherlink.com 1.10,2013-03-08 13:42:00,
2013-03-08 08:57:00,25.6,22.0,30.51,SW,235,0.0,1.0,86,0.00,,,0.00,weatherlink.com 1.10,2013-03-08 13:57:00,
2013-03-08 09:13:00,27.2,23.0,30.51,WNW,297,0.0,3.0,83,0.00,,,0.00,weatherlink.com 1.10,2013-03-08 14:13:00,
2013-03-08 09:28:00,28.7,24.0,30.51,NW,304,0.0,3.0,81,0.00,,,0.00,weatherlink.com 1.10,2013-03-08 14:28:00,
2013-03-08 09:43:00,30.0,25.0,30.52,NW,305,3.0,4.0,80,0.00,,,0.00,weatherlink.com 1.10,2013-03-08 14:43:00,
2013-03-08 09:58:00,30.0,24.0,30.52,NW,308,6.0,7.0,79,0.00,,,0.00,weatherlink.com 1.10,2013-03-08 14:58:00,
2013-03-08 10:13:00,30.1,25.0,30.52,NW,311,3.0,6.0,80,0.00,,,0.00,weatherlink.com 1.10,2013-03-08 15:13:00,
2013-03-08 10:28:00,30.4,25.0,30.52,NW,309,2.0,7.0,79,0.00,,,0.00,weatherlink.com 1.10,2013-03-08 15:28:00,
2013-03-08 10:43:00,31.4,25.0,30.52,NW,309,3.0,6.0,78,0.00,,,0.00,weatherlink.com 1.10,2013-03-08 15:43:00,
2013-03-08 10:58:00,32.7,25.0,30.52,NW,323,1.0,5.0,73,0.00,,,0.00,weatherlink.com 1.10,2013-03-08 15:58:00,
2013-03-08 11:13:00,34.4,25.0,30.51,WNW,302,4.0,5.0,69,0.00,,,0.00,weatherlink.com 1.10,2013-03-08 16:13:00,
2013-03-08 11:28:00,34.6,26.0,30.51,WNW,297,0.0,7.0,70,0.00,,,0.00,weatherlink.com 1.10,2013-03-08 16:28:00,
2013-03-08 11:43:00,34.9,26.0,30.51,WNW,299,3.0,5.0,70,0.00,,,0.00,weatherlink.com 1.10,2013-03-08 16:43:00,
2013-03-08 11:58:00,35.9,25.0,30.50,WNW,296,1.0,4.0,65,0.00,,,0.00,weatherlink.com 1.10,2013-03-08 16:58:00,
2013-03-08 12:13:00,38.1,25.0,30.50,SW,236,2.0,3.0,60,0.00,,,0.00,weatherlink.com 1.10,2013-03-08 17:13:00,
2013-03-08 12:28:00,37.9,26.0,30.49,NW,317,1.0,6.0,62,0.00,,,0.00,weatherlink.com 1.10,2013-03-08 17:28:00,
2013-03-08 12:43:00,38.9,26.0,30.49,ESE,113,0.0,5.0,61,0.01,,,0.01,weatherlink.com 1.10,2013-03-08 17:43:00,
2013-03-08 12:58:00,39.8,27.0,30.48,South,188,2.0,4.0,60,0.01,,,0.01,weatherlink.com 1.10,2013-03-08 17:58:00,
2013-03-08 13:13:00,41.1,28.0,30.47,WNW,284,1.0,3.0,61,0.01,,,0.01,weatherlink.com 1.10,2013-03-08 18:13:00,
2013-03-08 13:28:00,40.2,28.0,30.47,SW,229,3.0,6.0,63,0.01,,,0.01,weatherlink.com 1.10,2013-03-08 18:28:00,
2013-03-08 13:43:00,39.1,27.0,30.46,WNW,289,4.0,8.0,63,0.00,,,0.01,weatherlink.com 1.10,2013-03-08 18:43:00,
2013-03-08 13:58:00,39.1,28.0,30.46,WNW,293,1.0,8.0,64,0.00,,,0.01,weatherlink.com 1.10,2013-03-08 18:58:00,
2013-03-08 14:13:00,38.9,28.0,30.46,West,281,2.0,9.0,65,0.00,,,0.01,weatherlink.com 1.10,2013-03-08 19:13:00,
2013-03-08 14:28:00,38.8,29.0,30.46,WNW,295,4.0,8.0,67,0.00,,,0.01,weatherlink.com 1.10,2013-03-08 19:28:00,
2013-03-08 14:43:00,39.0,28.0,30.46,NW,316,4.0,9.0,65,0.00,,,0.01,weatherlink.com 1.10,2013-03-08 19:43:00,
2013-03-08 14:58:00,39.1,29.0,30.46,NW,309,4.0,7.0,66,0.00,,,0.01,weatherlink.com 1.10,2013-03-08 19:58:00,
2013-03-08 15:13:00,39.1,29.0,30.46,NW,304,2.0,8.0,66,0.00,,,0.01,weatherlink.com 1.10,2013-03-08 20:13:00,
2013-03-08 15:28:00,39.6,28.0,30.45,NW,316,4.0,8.0,64,0.00,,,0.01,weatherlink.com 1.10,2013-03-08 20:28:00,
2013-03-08 15:43:00,39.6,29.0,30.45,WNW,284,4.0,8.0,66,0.00,,,0.01,weatherlink.com 1.10,2013-03-08 20:43:00,
2013-03-08 15:58:00,39.9,29.0,30.45,WNW,301,3.0,7.0,64,0.00,,,0.01,weatherlink.com 1.10,2013-03-08 20:58:00,
2013-03-08 16:13:00,39.9,29.0,30.45,NW,311,3.0,7.0,64,0.00,,,0.01,weatherlink.com 1.10,2013-03-08 21:13:00,
2013-03-08 16:28:00,40.4,28.0,30.45,WNW,300,2.0,7.0,62,0.00,,,0.01,weatherlink.com 1.10,2013-03-08 21:28:00,
2013-03-08 16:43:00,40.4,29.0,30.44,WNW,289,2.0,6.0,64,0.00,,,0.01,weatherlink.com 1.10,2013-03-08 21:43:00,
2013-03-08 16:58:00,40.7,28.0,30.44,NW,318,2.0,6.0,62,0.00,,,0.01,weatherlink.com 1.10,2013-03-08 21:58:00,
2013-03-08 17:13:00,40.6,29.0,30.44,WNW,297,2.0,4.0,63,0.00,,,0.01,weatherlink.com 1.10,2013-03-08 22:13:00,
2013-03-08 17:28:00,40.6,28.0,30.44,NE,34,0.0,4.0,61,0.00,,,0.01,weatherlink.com 1.10,2013-03-08 22:28:00,
2013-03-08 17:43:00,41.0,28.0,30.44,NNW,347,1.0,3.0,61,0.00,,,0.01,weatherlink.com 1.10,2013-03-08 22:43:00,
2013-03-08 17:58:00,40.2,28.0,30.44,NW,316,1.0,2.0,62,0.00,,,0.01,weatherlink.com 1.10,2013-03-08 22:58:00,
2013-03-08 18:13:00,39.0,28.0,30.43,WNW,298,1.0,2.0,64,0.00,,,0.01,weatherlink.com 1.10,2013-03-08 23:13:00,
2013-03-08 18:28:00,37.7,27.0,30.43,WNW,296,0.0,1.0,66,0.00,,,0.01,weatherlink.com 1.10,2013-03-08 23:28:00,
2013-03-08 18:43:00,36.1,26.0,30.44,WNW,296,0.0,0.0,68,0.00,,,0.01,weatherlink.com 1.10,2013-03-08 23:43:00,
2013-03-08 18:58:00,34.0,26.0,30.44,WNW,297,0.0,0.0,72,0.00,,,0.01,weatherlink.com 1.10,2013-03-08 23:58:00,
2013-03-08 19:14:00,32.9,26.0,30.44,WNW,296,0.0,0.0,76,0.00,,,0.01,weatherlink.com 1.10,2013-03-09 00:14:00,
2013-03-08 19:29:00,33.0,26.0,30.43,WNW,296,0.0,0.0,75,0.00,,,0.01,weatherlink.com 1.10,2013-03-09 00:29:00,
2013-03-08 19:44:00,31.8,26.0,30.43,NW,322,0.0,1.0,79,0.00,,,0.01,weatherlink.com 1.10,2013-03-09 00:44:00,
2013-03-08 19:59:00,31.9,26.0,30.43,NE,55,0.0,1.0,78,0.00,,,0.01,weatherlink.com 1.10,2013-03-09 00:59:00,
2013-03-08 20:14:00,31.7,26.0,30.43,NE,56,0.0,1.0,78,0.00,,,0.01,weatherlink.com 1.10,2013-03-09 01:14:00,
2013-03-08 20:29:00,29.6,24.0,30.44,NE,56,0.0,0.0,81,0.00,,,0.01,weatherlink.com 1.10,2013-03-09 01:29:00,
2013-03-08 20:44:00,29.8,25.0,30.44,ENE,57,0.0,1.0,83,0.00,,,0.01,weatherlink.com 1.10,2013-03-09 01:44:00,
2013-03-08 20:59:00,29.7,25.0,30.44,ENE,57,0.0,0.0,82,0.00,,,0.01,weatherlink.com 1.10,2013-03-09 01:59:00,
2013-03-08 21:14:00,29.5,25.0,30.44,ENE,57,0.0,0.0,83,0.00,,,0.01,weatherlink.com 1.10,2013-03-09 02:14:00,
2013-03-08 21:29:00,28.1,24.0,30.44,NE,56,0.0,0.0,84,0.00,,,0.01,weatherlink.com 1.10,2013-03-09 02:29:00,
2013-03-08 21:44:00,28.3,24.0,30.44,NE,56,0.0,0.0,85,0.00,,,0.01,weatherlink.com 1.10,2013-03-09 02:44:00,
2013-03-08 21:59:00,27.0,23.0,30.45,ENE,57,0.0,0.0,86,0.00,,,0.01,weatherlink.com 1.10,2013-03-09 02:59:00,
2013-03-08 22:14:00,28.3,25.0,30.44,ENE,58,0.0,1.0,86,0.00,,,0.01,weatherlink.com 1.10,2013-03-09 03:14:00,
2013-03-08 22:29:00,28.4,25.0,30.44,ENE,60,0.0,1.0,86,0.00,,,0.01,weatherlink.com 1.10,2013-03-09 03:29:00,
2013-03-08 22:44:00,29.3,26.0,30.44,SE,129,0.0,1.0,86,0.00,,,0.01,weatherlink.com 1.10,2013-03-09 03:44:00,
2013-03-08 22:59:00,28.8,25.0,30.43,SE,125,1.0,1.0,87,0.00,,,0.01,weatherlink.com 1.10,2013-03-09 03:59:00,
2013-03-08 23:14:00,29.8,26.0,30.43,East,93,0.0,1.0,85,0.00,,,0.01,weatherlink.com 1.10,2013-03-09 04:14:00,
2013-03-08 23:29:00,29.4,26.0,30.42,East,93,0.0,1.0,86,0.00,,,0.01,weatherlink.com 1.10,2013-03-09 04:29:00,
2013-03-08 23:44:00,29.9,26.0,30.42,East,98,0.0,2.0,85,0.00,,,0.01,weatherlink.com 1.10,2013-03-09 04:44:00,
2013-03-08 23:59:00,29.7,26.0,30.42,East,84,0.0,2.0,87,0.00,,,0.00,weatherlink.com 1.10,2013-03-09 04:59:00,